KW0MSP Weather Reports


Display with metric or nautical units.
time (UTC)temp
F
wind
direction
speed
MPH
gust
MPH
rain 1hr
in
rain 24hr
in
rain mn
in
humidity
%
barometer
mb
20260504050515 55 0.0 1.0 0.00 0.00 0.00 36 1001.3
20260504045527 55 281 0.0 4.0 0.00 0.00 0.00 36 1001.5
20260504044523 55 255 1.0 4.0 0.00 0.00 0.00 37 1001.6
20260504043520 55 270 0.0 2.0 0.00 0.00 0.00 37 1001.8
20260504042516 55 270 0.0 2.0 0.00 0.00 0.00 38 1002.0
20260504041528 54 0.0 2.0 0.00 0.00 0.00 38 1002.1
20260504040525 55 0.0 1.0 0.00 0.00 0.00 38 1002.4
20260504035521 55 0.0 1.0 0.00 0.00 0.00 36 1002.8
20260504034518 56 0.0 0.0 0.00 0.00 0.00 35 1003.0
20260504033514 56 0.0 0.0 0.00 0.00 0.00 34 1003.1
20260504032526 57 0.0 0.0 0.00 0.00 0.00 32 1003.3
20260504031523 57 0.0 0.0 0.00 0.00 0.00 32 1003.4
20260504030520 58 0.0 0.0 0.00 0.00 0.00 30 1003.5
20260504025536 59 0.0 0.0 0.00 0.00 0.00 29 1003.6
20260504024528 60 0.0 0.0 0.00 0.00 0.00 27 1003.7
20260504023543 60 0.0 0.0 0.00 0.00 0.00 24 1003.8
20260504022520 62 0.0 0.0 0.00 0.00 0.00 24 1003.9
20260504021517 63 0.0 1.0 0.00 0.00 0.00 23 1004.0
20260504020528 63 270 0.0 2.0 0.00 0.00 0.00 24 1004.0
20260504015525 64 270 0.0 2.0 0.00 0.00 0.00 25 1004.0
20260504014521 65 0.0 1.0 0.00 0.00 0.00 23 1004.0
20260504013518 66 0.0 2.0 0.00 0.00 0.00 23 1004.3
20260504012515 67 270 0.0 3.0 0.00 0.00 0.00 21 1004.4
20260504011527 68 251 0.0 2.0 0.00 0.00 0.00 22 1004.5
20260504010523 68 289 1.0 4.0 0.00 0.00 0.00 21 1004.6
20260504005520 68 280 2.0 5.0 0.00 0.00 0.00 20 1004.6
20260504004517 69 278 1.0 7.0 0.00 0.00 0.00 19 1004.6
20260504003528 70 301 2.0 9.0 0.00 0.00 0.00 20 1004.8
20260504002545 70 275 2.0 11.0 0.00 0.00 0.00 19 1004.8
20260504001522 71 332 2.0 7.0 0.00 0.00 0.00 19 1004.9
20260504000519 71 307 2.0 6.0 0.00 0.00 0.00 19 1005.0
20260503235515 71 292 2.0 8.0 0.00 0.00 0.00 18 1005.0
20260503234527 71 242 3.0 10.0 0.00 0.00 0.00 18 1005.1
20260503233523 71 266 5.0 13.0 0.00 0.00 0.00 19 1005.1
20260503232520 71 258 3.0 8.0 0.00 0.00 0.00 19 1005.1
20260503231516 71 328 3.0 7.0 0.00 0.00 0.00 17 1005.3
20260503230527 71 276 2.0 8.0 0.00 0.00 0.00 18 1005.3
20260503225524 71 275 3.0 8.0 0.00 0.00 0.00 17 1005.5
20260503224521 71 304 6.0 11.0 0.00 0.00 0.00 18 1005.6
20260503223517 71 299 4.0 11.0 0.00 0.00 0.00 17 1005.5
20260503222529 71 247 2.0 7.0 0.00 0.00 0.00 17 1005.6
20260503221526 71 295 3.0 10.0 0.00 0.00 0.00 18 1005.7
20260503220523 72 331 4.0 10.0 0.00 0.00 0.00 18 1005.7
20260503215539 72 308 4.0 11.0 0.00 0.00 0.00 18 1005.9
20260503214516 72 299 4.0 12.0 0.00 0.00 0.00 17 1005.9
20260503213528 72 278 3.0 8.0 0.00 0.00 0.00 17 1005.9
20260503212524 71 308 3.0 8.0 0.00 0.00 0.00 19 1005.9
20260503211521 71 330 5.0 11.0 0.00 0.00 0.00 18 1006.0
20260503210517 72 299 4.0 10.0 0.00 0.00 0.00 18 1006.2
20260503205529 72 291 2.0 5.0 0.00 0.00 0.00 18 1006.2
20260503204526 72 298 3.0 10.0 0.00 0.00 0.00 18 1006.2
20260503203523 71 300 2.0 9.0 0.00 0.00 0.00 18 1006.3
20260503202519 72 315 5.0 12.0 0.00 0.00 0.00 18 1006.3
20260503201516 71 337 4.0 9.0 0.00 0.00 0.00 16 1006.5
20260503200527 71 304 4.0 10.0 0.00 0.00 0.00 18 1006.6
20260503195524 71 298 3.0 8.0 0.00 0.00 0.00 18 1006.7
20260503194521 71 336 4.0 10.0 0.00 0.00 0.00 17 1006.8
20260503193517 71 297 5.0 14.0 0.00 0.00 0.00 18 1006.9
20260503192529 71 335 6.0 15.0 0.00 0.00 0.00 18 1007.0
20260503191525 71 343 5.0 9.0 0.00 0.00 0.00 19 1007.0
20260503190521 70 326 4.0 11.0 0.00 0.00 0.00 19 1006.9
20260503185518 70 296 5.0 12.0 0.00 0.00 0.00 19 1007.0
20260503184515 70 314 6.0 15.0 0.00 0.00 0.00 19 1007.2
20260503183527 71 340 4.0 13.0 0.00 0.00 0.00 20 1007.1
20260503182521 71 301 6.0 17.0 0.00 0.00 0.00 21 1007.2
20260503181538 70 332 5.0 11.0 0.00 0.00 0.00 22 1007.2
20260503180529 70 327 4.0 13.0 0.00 0.00 0.00 23 1007.2
20260503175525 70 324 7.0 15.0 0.00 0.00 0.00 22 1007.3
20260503174523 70 312 6.0 12.0 0.00 0.00 0.00 23 1007.3
20260503173519 71 262 3.0 6.0 0.00 0.00 0.00 23 1007.3
20260503172516 70 298 4.0 11.0 0.00 0.00 0.00 27 1007.2
20260503171528 69 299 3.0 10.0 0.00 0.00 0.00 27 1007.3
20260503170524 69 343 6.0 11.0 0.00 0.00 0.00 26 1007.5
20260503150549 63 327 5.0 14.0 0.00 0.00 0.00 31 1006.7
20260503130516 57 313 3.0 6.0 0.00 0.00 0.00 40 1005.4
20260503110521 50 0.0 1.0 0.00 0.00 0.00 46 1004.0
20260503081524 58 253 2.0 5.0 0.00 0.00 0.00 35 1005.0
20260503080520 58 255 2.0 8.0 0.00 0.00 0.00 37 1005.0